Regional Weather Roundup
Issued by NWS

Home | Current Version | Previous Version | Text Only | Print | Product List | Glossary On
Versions: 1 2 3 4 5 6 7 8 9 10 11 12 13 14 15 16 17 18 19 20 21 22 23
000
ASUS44 KBMX 161210
RWRAL

ALABAMA REGIONAL WEATHER ROUNDUP
NATIONAL WEATHER SERVICE BIRMINGHAM AL
700 AM CDT TUE SEP 16 2014

NOTE: "FAIR" INDICATES FEW OR NO CLOUDS BELOW 12,000 FEET
WITH NO SIGNIFICANT WEATHER AND/OR OBSTRUCTIONS TO VISIBILITY.

THE REMARK "TC" DENOTES TEMPERATURE IN DEGREES CELSIUS.

ALZ001>011-014-016>018-020-161300-
NORTH ALABAMA

CITY           SKY/WX    TMP DP  RH WIND       PRES   REMARKS
MUSCLE SHOALS  PTCLDY    66  64  94 CALM      30.13R FOG
6HR MIN TEMP:  65; 6HR MAX TEMP:  72;

HUNTSVILLE     PTCLDY    68  66  93 CALM      30.12R
6HR MIN TEMP:  68; 6HR MAX TEMP:  74; 6HR PCP: TRACE;

DECATUR        PTCLDY    66  64  93 CALM      30.13R
6HR MIN TEMP:  65; 6HR MAX TEMP:  72; 6HR PCP: TRACE;

HALEYVILLE     FAIR      69  69 100 CALM      30.15S
6HR MIN TEMP:  69; 6HR MAX TEMP:  71;

GADSDEN        CLOUDY    72  70  94 CALM      30.11R VSB 1/2
6HR MIN TEMP:  72; 6HR MAX TEMP:  72;

$$

ALZ012-013-022-023-030>036-040>044-161300-
WEST CENTRAL ALABAMA

CITY           SKY/WX    TMP DP  RH WIND       PRES   REMARKS
TUSCALOOSA     PTCLDY    73  71  93 CALM      30.09R FOG
6HR MIN TEMP:  72; 6HR MAX TEMP:  75; 6HR PCP: TRACE;

$$

ALZ015-024>027-033>036-040>044-161300-
CENTRAL ALABAMA

CITY           SKY/WX    TMP DP  RH WIND       PRES   REMARKS
BIRMINGHAM     CLOUDY    72  70  93 CALM      30.13R
6HR MIN TEMP:  71; 6HR MAX TEMP:  73;

MONTGOMERY     CLOUDY    73  71  93 CALM      30.07S
6HR MIN TEMP:  73; 6HR MAX TEMP:  75;

SHELBY CO ARPT MOCLDY    72  70  93 CALM      30.11R
6HR MIN TEMP:  71; 6HR MAX TEMP:  72;

MAXWELL AFB    CLOUDY    72  72 100 N3        30.07S
6HR MIN TEMP:  72; 6HR MAX TEMP:  75;

GREENVILLE     FOG       74  72  93 N5        30.07S VSB 1/2
6HR MIN TEMP:  73; 6HR MAX TEMP:  74;

$$

ALZ019-021-028-029-037-038-045>048-161300-
EAST CENTRAL ALABAMA

CITY           SKY/WX    TMP DP  RH WIND       PRES   REMARKS
ANNISTON       FOG       71  70  96 CALM      30.12R VSB 1/2
6HR MIN TEMP:  71; 6HR MAX TEMP:  73; 6HR PCP: TRACE;

ALEXANDER CITY CLOUDY    74  73  96 CALM      30.11R
6HR MIN TEMP:  71; 6HR MAX TEMP:  74;

AUBURN         CLOUDY    70  68  94 N6        30.12R
6HR MIN TEMP:  70; 6HR MAX TEMP:  72;

$$

ALZ051>064-161300-
SOUTHWEST ALABAMA

CITY           SKY/WX    TMP DP  RH WIND       PRES   REMARKS
MOBILE         MOCLDY    73  73 100 N6        30.07S
6HR MIN TEMP:  72; 6HR MAX TEMP:  77;

BROOKLEY FIELD PTCLDY    75  75 100 N6        30.07S
6HR MIN TEMP:  75; 6HR MAX TEMP:  80;

EVERGREEN      MOCLDY    74  71  91 CALM      30.07S
6HR MIN TEMP:  73; 6HR MAX TEMP:  76;

$$

ALZ049-050-065>069-161300-
SOUTHEAST ALABAMA

CITY           SKY/WX    TMP DP  RH WIND       PRES   REMARKS
DOTHAN         FOG       73  73 100 CALM      30.10S VSB<1/4
6HR MIN TEMP:  72; 6HR MAX TEMP:  75;

OZARK          FOG       73  73  99 CALM      30.07R VSB<1/4
6HR MIN TEMP:  73; 6HR MAX TEMP:  76;

TROY           CLOUDY    73  72  96 CALM      30.08S FOG
6HR MIN TEMP:  72; 6HR MAX TEMP:  75;

EUFAULA        CLOUDY    77  74  90 CALM      30.06S
6HR MIN TEMP:  75; 6HR MAX TEMP:  77;

$$



USA.gov is the U.S. government's official web portal to all federal, state and local government web resources and services.